| time (UTC) | temp F | wind direction | speed MPH | gust MPH | rain 1hr in | rain 24hr in | rain mn in | humidity % | barometer mb |
| 20260508142510 | 51 | 270 | 0.0 | 3.0 | 0.00 | 0.01 | 0.01 | 78 | 1016.8 |
| 20260508142013 | 51 | 270 | 0.0 | 3.0 | 0.00 | 0.01 | 0.01 | 77 | 1016.8 |
| 20260508141543 | 50 | 270 | 0.0 | 3.0 | 0.00 | 0.01 | 0.01 | 80 | 1016.8 |
| 20260508141008 | 50 | 270 | 1.0 | 3.0 | 0.00 | 0.01 | 0.01 | 80 | 1016.8 |
| 20260508140509 | 49 | 270 | 1.0 | 3.0 | 0.00 | 0.01 | 0.01 | 80 | 1016.6 |
| 20260508140027 | 49 | 270 | 0.0 | 3.0 | 0.00 | 0.01 | 0.01 | 80 | 1016.8 |
| 20260508135512 | 49 | 270 | 0.0 | 3.0 | 0.00 | 0.01 | 0.01 | 79 | 1016.8 |
| 20260508135013 | 49 | 270 | 0.0 | 1.0 | 0.00 | 0.01 | 0.01 | 79 | 1016.8 |
| 20260508134525 | 48 | 270 | 0.0 | 1.0 | 0.00 | 0.01 | 0.01 | 79 | 1016.9 |
| 20260508134011 | 48 | 270 | 0.0 | 1.0 | 0.00 | 0.01 | 0.01 | 79 | 1017.0 |
| 20260508133508 | 48 | 285 | 0.0 | 4.0 | 0.00 | 0.01 | 0.01 | 79 | 1016.9 |
| 20260508133023 | 48 | 270 | 0.0 | 4.0 | 0.00 | 0.01 | 0.01 | 79 | 1016.8 |
| 20260508132510 | 48 | 270 | 0.0 | 2.0 | 0.00 | 0.01 | 0.01 | 79 | 1016.8 |
| 20260508132013 | 48 | 279 | 0.0 | 2.0 | 0.00 | 0.01 | 0.01 | 79 | 1016.7 |
| 20260508131525 | 48 | 279 | 0.0 | 2.0 | 0.00 | 0.01 | 0.01 | 80 | 1016.6 |
| 20260508131012 | 47 | 270 | 0.0 | 1.0 | 0.00 | 0.01 | 0.01 | 80 | 1016.5 |
| 20260508130511 | 47 | 270 | 0.0 | 1.0 | 0.00 | 0.01 | 0.01 | 80 | 1016.5 |
| 20260508130028 | 48 | 280 | 0.0 | 1.0 | 0.00 | 0.01 | 0.01 | 81 | 1016.5 |
| 20260508125511 | 47 | 279 | 0.0 | 1.0 | 0.00 | 0.01 | 0.01 | 79 | 1016.5 |
| 20260508125012 | 47 | 279 | 0.0 | 2.0 | 0.01 | 0.01 | 0.01 | 79 | 1016.4 |
| 20260508124527 | 47 | 279 | 0.0 | 4.0 | 0.01 | 0.01 | 0.01 | 78 | 1016.3 |
| 20260508124011 | 47 | 275 | 0.0 | 4.0 | 0.01 | 0.01 | 0.01 | 77 | 1016.3 |
| 20260508123511 | 47 | 275 | 0.0 | 5.0 | 0.01 | 0.01 | 0.01 | 78 | 1016.6 |
| 20260508123028 | 47 | 279 | 1.0 | 7.0 | 0.01 | 0.01 | 0.01 | 79 | 1016.7 |
| 20260508122509 | 47 | 287 | 1.0 | 7.0 | 0.01 | 0.01 | 0.01 | 79 | 1016.8 |
| 20260508122014 | 47 | 287 | 0.0 | 7.0 | 0.01 | 0.01 | 0.01 | 79 | 1016.8 |
| 20260508121524 | 47 | 281 | 2.0 | 8.0 | 0.01 | 0.01 | 0.01 | 79 | 1016.9 |
| 20260508121008 | 47 | 280 | 2.0 | 10.0 | 0.01 | 0.01 | 0.01 | 79 | 1017.2 |
| 20260508120514 | 47 | 281 | 2.0 | 12.0 | 0.01 | 0.01 | 0.01 | 79 | 1017.0 |
| 20260508120035 | 47 | 288 | 4.0 | 12.0 | 0.01 | 0.01 | 0.01 | 80 | 1017.3 |
| 20260508115515 | 47 | 280 | 3.0 | 13.0 | 0.01 | 0.01 | 0.01 | 81 | 1017.5 |
| 20260508115009 | 47 | 287 | 3.0 | 13.0 | 0.00 | 0.00 | 0.00 | 83 | 1017.5 |
| 20260508114008 | 46 | 279 | 2.0 | 5.0 | 0.00 | 0.00 | 0.00 | 85 | 1017.5 |
| 20260508113508 | 46 | 287 | 1.0 | 3.0 | 0.00 | 0.00 | 0.00 | 85 | 1017.3 |
| 20260508113016 | 46 | 279 | 0.0 | 4.0 | 0.00 | 0.00 | 0.00 | 84 | 1017.1 |
| 20260508112508 | 45 | 279 | 0.0 | 4.0 | 0.00 | 0.00 | 0.00 | 85 | 1017.0 |
| 20260508112009 | 45 | 279 | 2.0 | 7.0 | 0.00 | 0.00 | 0.00 | 85 | 1016.7 |
| 20260508111523 | 45 | 279 | 3.0 | 7.0 | 0.00 | 0.00 | 0.00 | 86 | 1016.7 |
| 20260508111012 | 44 | 275 | 1.0 | 3.0 | 0.00 | 0.00 | 0.00 | 87 | 1016.6 |
| 20260508110512 | 44 | 280 | 0.0 | 1.0 | 0.00 | 0.00 | 0.00 | 87 | 1016.2 |
| 20260508110024 | 45 | 280 | 0.0 | 2.0 | 0.00 | 0.00 | 0.00 | 86 | 1016.3 |
| 20260508105505 | 45 | 280 | 0.0 | 2.0 | 0.00 | 0.00 | 0.00 | 86 | 1016.4 |
| 20260508105005 | 45 | 281 | 0.0 | 2.0 | 0.00 | 0.00 | 0.00 | 85 | 1016.4 |
| 20260508104508 | 45 | 281 | 0.0 | 1.0 | 0.00 | 0.00 | 0.00 | 85 | 1016.2 |
| 20260508104006 | 45 | 270 | 0.0 | 1.0 | 0.00 | 0.00 | 0.00 | 84 | 1016.0 |
| 20260508103505 | 45 | 287 | 0.0 | 1.0 | 0.00 | 0.00 | 0.00 | 84 | 1016.0 |
| 20260508103026 | 46 | 270 | 0.0 | 0.0 | 0.00 | 0.00 | 0.00 | 83 | 1016.1 |
| 20260508101533 | 46 | 270 | 0.0 | 0.0 | 0.00 | 0.00 | 0.00 | 83 | 1016.0 |
| 20260508100028 | 47 | 270 | 0.0 | 2.0 | 0.00 | 0.00 | 0.00 | 84 | 1016.1 |
| 20260508095510 | 47 | 270 | 0.0 | 2.0 | 0.00 | 0.00 | 0.00 | 84 | 1016.1 |
| 20260508095013 | 47 | 270 | 0.0 | 2.0 | 0.00 | 0.00 | 0.00 | 84 | 1016.1 |
| 20260508094525 | 47 | 270 | 0.0 | 2.0 | 0.00 | 0.00 | 0.00 | 84 | 1016.0 |
| 20260508094004 | 47 | 270 | 0.0 | 2.0 | 0.00 | 0.00 | 0.00 | 84 | 1016.0 |
| 20260508093507 | 47 | 270 | 0.0 | 2.0 | 0.00 | 0.00 | 0.00 | 85 | 1016.3 |
| 20260508093013 | 46 | 270 | 0.0 | 2.0 | 0.00 | 0.00 | 0.00 | 84 | 1016.2 |
| 20260508092508 | 46 | 270 | 0.0 | 3.0 | 0.00 | 0.00 | 0.00 | 84 | 1015.8 |
| 20260508091516 | 46 | 270 | 0.0 | 3.0 | 0.00 | 0.00 | 0.00 | 83 | 1015.6 |
| 20260508091008 | 46 | 270 | 0.0 | 0.0 | 0.00 | 0.00 | 0.00 | 82 | 1015.4 |
| 20260508090508 | 47 | 270 | 0.0 | 0.0 | 0.00 | 0.00 | 0.00 | 81 | 1015.3 |
| 20260508090021 | 47 | 270 | 0.0 | 0.0 | 0.00 | 0.00 | 0.00 | 81 | 1015.1 |
| 20260508085508 | 47 | 270 | 0.0 | 0.0 | 0.00 | 0.00 | 0.00 | 81 | 1015.1 |
| 20260508085008 | 47 | 270 | 0.0 | 0.0 | 0.00 | 0.00 | 0.00 | 81 | 1015.2 |
| 20260508084523 | 47 | 270 | 0.0 | 0.0 | 0.00 | 0.00 | 0.00 | 81 | 1015.1 |
| 20260508084013 | 47 | 270 | 0.0 | 0.0 | 0.00 | 0.00 | 0.00 | 80 | 1015.1 |
| 20260508083509 | 47 | 270 | 0.0 | 0.0 | 0.00 | 0.00 | 0.00 | 80 | 1015.1 |
| 20260508083028 | 47 | 270 | 0.0 | 0.0 | 0.00 | 0.00 | 0.00 | 79 | 1015.2 |
| 20260508081515 | 47 | 270 | 0.0 | 0.0 | 0.00 | 0.00 | 0.00 | 79 | 1015.3 |
| 20260508080020 | 48 | 270 | 0.0 | 1.0 | 0.00 | 0.00 | 0.00 | 77 | 1015.7 |
| 20260508075507 | 49 | 270 | 0.0 | 1.0 | 0.00 | 0.00 | 0.00 | 76 | 1015.7 |
| 20260508075014 | 49 | 270 | 0.0 | 0.0 | 0.00 | 0.00 | 0.00 | 76 | 1015.9 |
| 20260508074522 | 49 | 270 | 0.0 | 0.0 | 0.00 | 0.00 | 0.00 | 75 | 1016.0 |
| 20260508074009 | 49 | 270 | 0.0 | 0.0 | 0.00 | 0.00 | 0.00 | 75 | 1016.0 |
| 20260508073508 | 50 | 270 | 0.0 | 0.0 | 0.00 | 0.00 | 0.00 | 74 | 1016.1 |
| 20260508073028 | 50 | 270 | 0.0 | 0.0 | 0.00 | 0.00 | 0.00 | 74 | 1016.2 |
| 20260508072510 | 50 | 270 | 0.0 | 1.0 | 0.00 | 0.00 | 0.00 | 74 | 1016.3 |
| 20260508072011 | 50 | 270 | 0.0 | 2.0 | 0.00 | 0.00 | 0.00 | 74 | 1016.3 |
| 20260508071528 | 50 | 270 | 0.0 | 2.0 | 0.00 | 0.00 | 0.00 | 74 | 1016.4 |
| 20260508071008 | 50 | 270 | 0.0 | 2.0 | 0.00 | 0.00 | 0.00 | 74 | 1016.3 |
| 20260508065007 | 51 | 270 | 0.0 | 2.0 | 0.00 | 0.00 | 0.00 | 71 | 1016.3 |
| 20260508064006 | 52 | 270 | 0.0 | 2.0 | 0.00 | 0.00 | 0.00 | 70 | 1016.2 |
| 20260508063510 | 52 | 270 | 0.0 | 2.0 | 0.00 | 0.00 | 0.00 | 70 | 1016.1 |
| 20260508063025 | 52 | 270 | 0.0 | 1.0 | 0.00 | 0.00 | 0.00 | 70 | 1016.1 |
| 20260508062510 | 52 | 270 | 0.0 | 3.0 | 0.00 | 0.00 | 0.00 | 70 | 1016.0 |
| 20260508062010 | 52 | 270 | 0.0 | 3.0 | 0.00 | 0.00 | 0.00 | 70 | 1016.0 |
| 20260508061524 | 52 | 270 | 0.0 | 3.0 | 0.00 | 0.00 | 0.00 | 71 | 1016.1 |
| 20260508061016 | 52 | 270 | 0.0 | 4.0 | 0.00 | 0.00 | 0.00 | 71 | 1016.1 |
| 20260508060509 | 52 | 270 | 0.0 | 4.0 | 0.00 | 0.00 | 0.00 | 71 | 1016.1 |
| 20260508060027 | 52 | 270 | 0.0 | 2.0 | 0.00 | 0.00 | 0.00 | 73 | 1016.0 |
| 20260508055009 | 52 | 270 | 0.0 | 0.0 | 0.00 | 0.00 | 0.00 | 71 | 1015.9 |
| 20260508054519 | 52 | 270 | 0.0 | 1.0 | 0.00 | 0.00 | 0.00 | 71 | 1016.0 |
| 20260508054008 | 53 | 270 | 0.0 | 1.0 | 0.00 | 0.00 | 0.00 | 72 | 1016.1 |
| 20260508052510 | 53 | 270 | 0.0 | 2.0 | 0.00 | 0.00 | 0.00 | 72 | 1016.1 |
| 20260508052011 | 53 | 270 | 0.0 | 2.0 | 0.00 | 0.00 | 0.00 | 71 | 1016.0 |
| 20260508051523 | 53 | 270 | 0.0 | 5.0 | 0.00 | 0.00 | 0.00 | 71 | 1016.0 |
| 20260508051010 | 53 | 270 | 0.0 | 5.0 | 0.00 | 0.00 | 0.00 | 72 | 1016.1 |
| 20260508050511 | 53 | 270 | 2.0 | 5.0 | 0.00 | 0.00 | 0.00 | 73 | 1016.2 |
| 20260508050027 | 53 | 270 | 1.0 | 4.0 | 0.00 | 0.00 | 0.00 | 71 | 1015.6 |
| 20260508045509 | 53 | 270 | 0.0 | 4.0 | 0.00 | 0.00 | 0.00 | 70 | 1014.9 |
| 20260508045008 | 54 | 270 | 2.0 | 4.0 | 0.00 | 0.00 | 0.00 | 70 | 1014.7 |
| 20260508044527 | 54 | 270 | 0.0 | 4.0 | 0.00 | 0.00 | 0.00 | 70 | 1014.7 |
| 20260508044010 | 54 | 270 | 0.0 | 4.0 | 0.00 | 0.00 | 0.00 | 69 | 1014.8 |
| 20260508043020 | 54 | 270 | 0.0 | 5.0 | 0.00 | 0.00 | 0.00 | 67 | 1014.7 |
| 20260508041524 | 56 | 270 | 0.0 | 0.0 | 0.00 | 0.00 | 0.00 | 65 | 1014.5 |
| 20260508041011 | 56 | 270 | 0.0 | 0.0 | 0.00 | 0.00 | 0.00 | 65 | 1014.6 |
| 20260508040512 | 56 | 270 | 0.0 | 4.0 | 0.00 | 0.00 | 0.00 | 65 | 1014.5 |
| 20260508040034 | 56 | 270 | 0.0 | 4.0 | 0.00 | 0.00 | 0.00 | 63 | 1014.5 |
| 20260508035507 | 57 | 270 | 0.0 | 3.0 | 0.00 | 0.00 | 0.00 | 64 | 1014.5 |
| 20260508035011 | 57 | 270 | 0.0 | 5.0 | 0.00 | 0.00 | 0.00 | 60 | 1014.8 |
| 20260508034529 | 58 | 270 | 1.0 | 10.0 | 0.00 | 0.00 | 0.00 | 55 | 1015.2 |
| 20260508034012 | 57 | 270 | 5.0 | 16.0 | 0.00 | 0.00 | 0.00 | 54 | 1015.1 |
| 20260508033512 | 57 | 270 | 7.0 | 16.0 | 0.00 | 0.00 | 0.00 | 53 | 1014.8 |
| 20260508032008 | 55 | 270 | 0.0 | 3.0 | 0.00 | 0.00 | 0.00 | 60 | 1014.3 |
| 20260508031528 | 55 | 270 | 0.0 | 2.0 | 0.00 | 0.00 | 0.00 | 61 | 1014.3 |
| 20260508030023 | 56 | 270 | 0.0 | 3.0 | 0.00 | 0.00 | 0.00 | 62 | 1014.1 |
| 20260508025511 | 56 | 270 | 0.0 | 4.0 | 0.00 | 0.00 | 0.00 | 61 | 1013.9 |
| 20260508025012 | 56 | 270 | 1.0 | 6.0 | 0.00 | 0.00 | 0.00 | 61 | 1013.7 |
| 20260508024540 | 56 | 270 | 1.0 | 8.0 | 0.00 | 0.00 | 0.00 | 61 | 1013.6 |
| 20260508024008 | 56 | 270 | 2.0 | 10.0 | 0.00 | 0.00 | 0.00 | 60 | 1013.6 |
| 20260508023511 | 57 | 270 | 3.0 | 12.0 | 0.00 | 0.00 | 0.00 | 58 | 1013.6 |
| 20260508023029 | 58 | 270 | 3.0 | 12.0 | 0.00 | 0.00 | 0.00 | 56 | 1013.6 |
| 20260508022508 | 59 | 270 | 3.0 | 17.0 | 0.00 | 0.00 | 0.00 | 52 | 1013.6 |
| 20260508022012 | 59 | 270 | 6.0 | 17.0 | 0.00 | 0.00 | 0.00 | 50 | 1013.5 |
| 20260508021010 | 60 | 281 | 1.0 | 7.0 | 0.00 | 0.00 | 0.00 | 46 | 1013.3 |
| 20260508020022 | 61 | 270 | 1.0 | 9.0 | 0.00 | 0.00 | 0.00 | 44 | 1013.2 |
| 20260508015509 | 61 | 270 | 3.0 | 9.0 | 0.00 | 0.00 | 0.00 | 44 | 1013.2 |
| 20260508014541 | 62 | 270 | 1.0 | 6.0 | 0.00 | 0.00 | 0.00 | 44 | 1013.2 |
| 20260508014010 | 62 | 270 | 1.0 | 6.0 | 0.00 | 0.00 | 0.00 | 43 | 1013.2 |
| 20260508013508 | 62 | 270 | 2.0 | 5.0 | 0.00 | 0.00 | 0.00 | 43 | 1013.1 |
| 20260508013027 | 62 | 270 | 2.0 | 5.0 | 0.00 | 0.00 | 0.00 | 43 | 1012.8 |
| 20260508012509 | 63 | 270 | 0.0 | 4.0 | 0.00 | 0.00 | 0.00 | 42 | 1012.7 |
| 20260508012010 | 63 | 279 | 1.0 | 4.0 | 0.00 | 0.00 | 0.00 | 41 | 1012.5 |
| 20260508011525 | 63 | 279 | 1.0 | 4.0 | 0.00 | 0.00 | 0.00 | 41 | 1012.5 |
| 20260508011011 | 63 | 281 | 0.0 | 4.0 | 0.00 | 0.00 | 0.00 | 41 | 1012.3 |
| 20260508010511 | 63 | 284 | 1.0 | 4.0 | 0.00 | 0.00 | 0.00 | 40 | 1012.3 |
| 20260508003050 | 61 | 270 | 1.0 | 14.0 | 0.00 | 0.00 | 0.00 | 44 | 1012.6 |
| 20260508002508 | 61 | 285 | 5.0 | 15.0 | 0.00 | 0.00 | 0.00 | 43 | 1012.8 |
| 20260508002015 | 62 | 270 | 5.0 | 15.0 | 0.00 | 0.00 | 0.00 | 42 | 1012.8 |
| 20260508001525 | 63 | 270 | 3.0 | 12.0 | 0.00 | 0.00 | 0.00 | 41 | 1012.7 |
| 20260508001010 | 63 | 270 | 4.0 | 12.0 | 0.00 | 0.00 | 0.00 | 39 | 1012.7 |
| 20260508000513 | 63 | 279 | 4.0 | 19.0 | 0.00 | 0.00 | 0.00 | 40 | 1012.5 |
| 20260508000026 | 64 | 279 | 4.0 | 19.0 | 0.00 | 0.00 | 0.00 | 40 | 1012.6 |
| 20260507235512 | 65 | 270 | 8.0 | 16.0 | 0.00 | 0.00 | 0.00 | 38 | 1012.5 |
| 20260507235010 | 66 | 282 | 5.0 | 15.0 | 0.00 | 0.00 | 0.00 | 36 | 1012.4 |
| 20260507234520 | 66 | 287 | 3.0 | 9.0 | 0.00 | 0.00 | 0.00 | 34 | 1012.4 |
| 20260507234010 | 66 | 282 | 3.0 | 12.0 | 0.00 | 0.00 | 0.00 | 33 | 1012.2 |
| 20260507233510 | 67 | 279 | 5.0 | 12.0 | 0.00 | 0.00 | 0.00 | 32 | 1012.3 |
| 20260507233032 | 67 | 275 | 3.0 | 13.0 | 0.00 | 0.00 | 0.00 | 32 | 1012.2 |
| 20260507232516 | 67 | 275 | 2.0 | 13.0 | 0.00 | 0.00 | 0.00 | 30 | 1012.1 |
| 20260507232009 | 68 | 287 | 2.0 | 9.0 | 0.00 | 0.00 | 0.00 | 30 | 1012.1 |
| 20260507231523 | 68 | 275 | 3.0 | 11.0 | 0.00 | 0.00 | 0.00 | 30 | 1012.1 |
| 20260507231016 | 68 | 279 | 4.0 | 11.0 | 0.00 | 0.00 | 0.00 | 29 | 1012.1 |
| 20260507230510 | 68 | 279 | 1.0 | 12.0 | 0.00 | 0.00 | 0.00 | 29 | 1012.0 |
| 20260507230016 | 68 | 279 | 2.0 | 12.0 | 0.00 | 0.00 | 0.00 | 28 | 1012.0 |
| 20260507225512 | 69 | 279 | 3.0 | 9.0 | 0.00 | 0.00 | 0.00 | 27 | 1012.0 |
| 20260507225008 | 69 | 279 | 1.0 | 10.0 | 0.00 | 0.00 | 0.00 | 28 | 1011.9 |
| 20260507224518 | 69 | 279 | 3.0 | 10.0 | 0.00 | 0.00 | 0.00 | 27 | 1012.0 |
| 20260507224007 | 69 | 279 | 3.0 | 10.0 | 0.00 | 0.00 | 0.00 | 25 | 1011.9 |
| 20260507223511 | 70 | 287 | 1.0 | 10.0 | 0.00 | 0.00 | 0.00 | 26 | 1011.9 |
| 20260507223026 | 70 | 280 | 3.0 | 10.0 | 0.00 | 0.00 | 0.00 | 25 | 1011.9 |
| 20260507222511 | 70 | 279 | 1.0 | 9.0 | 0.00 | 0.00 | 0.00 | 25 | 1011.9 |
| 20260507222011 | 71 | 279 | 4.0 | 9.0 | 0.00 | 0.00 | 0.00 | 24 | 1012.0 |
| 20260507221528 | 72 | 270 | 3.0 | 11.0 | 0.00 | 0.00 | 0.00 | 25 | 1012.0 |
| 20260507221014 | 72 | 257 | 5.0 | 11.0 | 0.00 | 0.00 | 0.00 | 24 | 1012.0 |
| 20260507220513 | 72 | 359 | 6.0 | 11.0 | 0.00 | 0.00 | 0.00 | 24 | 1012.0 |
| 20260507220027 | 72 | 305 | 1.0 | 9.0 | 0.00 | 0.00 | 0.00 | 24 | 1012.1 |
| 20260507215514 | 73 | 298 | 3.0 | 9.0 | 0.00 | 0.00 | 0.00 | 25 | 1012.3 |
| 20260507215008 | 73 | 303 | 2.0 | 9.0 | 0.00 | 0.00 | 0.00 | 24 | 1012.3 |
| 20260507214518 | 73 | 258 | 0.0 | 10.0 | 0.00 | 0.00 | 0.00 | 26 | 1012.3 |
| 20260507214009 | 73 | 282 | 3.0 | 14.0 | 0.00 | 0.00 | 0.00 | 24 | 1012.4 |
| 20260507213507 | 73 | 325 | 3.0 | 14.0 | 0.00 | 0.00 | 0.00 | 25 | 1012.4 |
| 20260507213020 | 72 | 288 | 3.0 | 14.0 | 0.00 | 0.00 | 0.00 | 24 | 1012.5 |
| 20260507212511 | 73 | 260 | 7.0 | 14.0 | 0.00 | 0.00 | 0.00 | 25 | 1012.5 |
| 20260507212012 | 73 | 261 | 3.0 | 9.0 | 0.00 | 0.00 | 0.00 | 26 | 1012.5 |
| 20260507211526 | 72 | 304 | 3.0 | 12.0 | 0.00 | 0.00 | 0.00 | 24 | 1012.6 |
| 20260507211008 | 72 | 275 | 5.0 | 13.0 | 0.00 | 0.00 | 0.00 | 25 | 1012.8 |
| 20260507210508 | 72 | 254 | 4.0 | 14.0 | 0.00 | 0.00 | 0.00 | 26 | 1012.9 |
| 20260507210028 | 73 | 288 | 7.0 | 14.0 | 0.00 | 0.00 | 0.00 | 25 | 1012.9 |
| 20260507205512 | 73 | 287 | 7.0 | 14.0 | 0.00 | 0.00 | 0.00 | 25 | 1013.0 |
| 20260507205013 | 73 | 300 | 6.0 | 12.0 | 0.00 | 0.00 | 0.00 | 24 | 1013.1 |
| 20260507204008 | 73 | 281 | 5.0 | 13.0 | 0.00 | 0.00 | 0.00 | 24 | 1013.6 |
| 20260507203508 | 73 | 291 | 6.0 | 13.0 | 0.00 | 0.00 | 0.00 | 25 | 1013.6 |
| 20260507203018 | 73 | 281 | 1.0 | 11.0 | 0.00 | 0.00 | 0.00 | 26 | 1013.6 |
| 20260507202508 | 73 | 323 | 4.0 | 13.0 | 0.00 | 0.00 | 0.00 | 23 | 1013.6 |
| 20260507202013 | 73 | 294 | 6.0 | 13.0 | 0.00 | 0.00 | 0.00 | 26 | 1013.6 |
| 20260507201526 | 73 | 344 | 5.0 | 13.0 | 0.00 | 0.00 | 0.00 | 26 | 1013.7 |
| 20260507201009 | 73 | 279 | 4.0 | 13.0 | 0.00 | 0.00 | 0.00 | 26 | 1013.7 |
| 20260507200507 | 72 | 302 | 5.0 | 13.0 | 0.00 | 0.00 | 0.00 | 28 | 1013.7 |
| 20260507200027 | 72 | 304 | 5.0 | 14.0 | 0.00 | 0.00 | 0.00 | 27 | 1013.8 |
| 20260507195508 | 73 | 298 | 5.0 | 14.0 | 0.00 | 0.00 | 0.00 | 25 | 1013.7 |
| 20260507195011 | 73 | 211 | 1.0 | 10.0 | 0.00 | 0.00 | 0.00 | 29 | 1013.8 |
| 20260507194528 | 72 | 275 | 3.0 | 12.0 | 0.00 | 0.00 | 0.00 | 26 | 1013.7 |
| 20260507194009 | 72 | 360 | 6.0 | 12.0 | 0.00 | 0.00 | 0.00 | 28 | 1013.7 |
| 20260507193510 | 72 | 191 | 2.0 | 10.0 | 0.00 | 0.00 | 0.00 | 28 | 1013.7 |
| 20260507193034 | 73 | 289 | 3.0 | 10.0 | 0.00 | 0.00 | 0.00 | 29 | 1013.8 |
| 20260507192509 | 73 | 321 | 5.0 | 10.0 | 0.00 | 0.00 | 0.00 | 28 | 1013.8 |
| 20260507192011 | 73 | 46 | 1.0 | 9.0 | 0.00 | 0.00 | 0.00 | 28 | 1013.9 |
| 20260507191522 | 73 | 297 | 1.0 | 9.0 | 0.00 | 0.00 | 0.00 | 31 | 1014.0 |
| 20260507191011 | 72 | 270 | 2.0 | 8.0 | 0.00 | 0.00 | 0.00 | 27 | 1014.1 |
| 20260507190510 | 71 | 303 | 2.0 | 8.0 | 0.00 | 0.00 | 0.00 | 31 | 1014.1 |
| 20260507190027 | 70 | 341 | 2.0 | 7.0 | 0.00 | 0.00 | 0.00 | 28 | 1014.1 |
| 20260507185510 | 70 | 177 | 1.0 | 5.0 | 0.00 | 0.01 | 0.00 | 32 | 1014.1 |
| 20260507185009 | 69 | 156 | 2.0 | 5.0 | 0.00 | 0.02 | 0.00 | 32 | 1014.3 |
| 20260507184525 | 70 | 150 | 1.0 | 5.0 | 0.00 | 0.02 | 0.00 | 29 | 1014.4 |
| 20260507184012 | 69 | 118 | 0.0 | 5.0 | 0.00 | 0.03 | 0.00 | 33 | 1014.3 |
| 20260507183512 | 68 | 302 | 0.0 | 5.0 | 0.00 | 0.05 | 0.00 | 30 | 1014.4 |
| 20260507183028 | 68 | 286 | 1.0 | 8.0 | 0.00 | 0.06 | 0.00 | 29 | 1014.4 |
| 20260507182013 | 67 | 167 | 1.0 | 8.0 | 0.00 | 0.08 | 0.00 | 32 | 1014.5 |
| 20260507181526 | 66 | 117 | 0.0 | 8.0 | 0.00 | 0.09 | 0.00 | 35 | 1014.6 |
| 20260507181013 | 66 | 337 | 2.0 | 8.0 | 0.00 | 0.09 | 0.00 | 31 | 1014.7 |
| 20260507180511 | 67 | 249 | 2.0 | 5.0 | 0.00 | 0.10 | 0.00 | 31 | 1014.8 |
| 20260507180024 | 67 | 328 | 1.0 | 4.0 | 0.00 | 0.11 | 0.00 | 33 | 1014.9 |
| 20260507175511 | 67 | 303 | 0.0 | 5.0 | 0.00 | 0.11 | 0.00 | 33 | 1014.6 |
| 20260507175009 | 67 | 79 | 2.0 | 5.0 | 0.00 | 0.12 | 0.00 | 33 | 1014.7 |
| 20260507174526 | 67 | 304 | 2.0 | 5.0 | 0.00 | 0.13 | 0.00 | 34 | 1014.7 |
| 20260507174009 | 66 | 138 | 1.0 | 4.0 | 0.00 | 0.14 | 0.00 | 33 | 1014.9 |
| 20260507173508 | 65 | 44 | 1.0 | 4.0 | 0.00 | 0.15 | 0.00 | 33 | 1014.9 |
| 20260507173030 | 65 | 137 | 0.0 | 5.0 | 0.00 | 0.17 | 0.00 | 35 | 1014.9 |
| 20260507172510 | 66 | 351 | 1.0 | 5.0 | 0.00 | 0.18 | 0.00 | 34 | 1014.9 |
| 20260507172012 | 66 | 304 | 1.0 | 6.0 | 0.00 | 0.20 | 0.00 | 31 | 1015.0 |
| 20260507171526 | 65 | 275 | 1.0 | 6.0 | 0.00 | 0.21 | 0.00 | 32 | 1015.0 |
| 20260507171011 | 65 | 331 | 2.0 | 6.0 | 0.00 | 0.23 | 0.00 | 32 | 1015.2 |
| 20260507170025 | 63 | 79 | 0.0 | 4.0 | 0.00 | 0.26 | 0.00 | 35 | 1015.4 |
| 20260507165507 | 63 | 286 | 0.0 | 4.0 | 0.00 | 0.28 | 0.00 | 36 | 1015.5 |
| 20260507165007 | 62 | 324 | 0.0 | 4.0 | 0.00 | 0.29 | 0.00 | 40 | 1015.5 |
| 20260507164526 | 61 | 193 | 1.0 | 4.0 | 0.00 | 0.31 | 0.00 | 42 | 1015.5 |
| 20260507164010 | 60 | 164 | 0.0 | 4.0 | 0.00 | 0.32 | 0.00 | 39 | 1015.5 |
| 20260507163509 | 60 | 302 | 1.0 | 7.0 | 0.00 | 0.33 | 0.00 | 40 | 1015.5 |
| 20260507163028 | 59 | 305 | 2.0 | 9.0 | 0.00 | 0.34 | 0.00 | 38 | 1015.5 |
| 20260507162510 | 59 | 296 | 3.0 | 9.0 | 0.00 | 0.35 | 0.00 | 38 | 1015.5 |
| 20260507162014 | 58 | 270 | 2.0 | 8.0 | 0.00 | 0.37 | 0.00 | 40 | 1015.6 |
| 20260507161525 | 58 | 25 | 0.0 | 9.0 | 0.00 | 0.38 | 0.00 | 40 | 1015.6 |
| 20260507161011 | 58 | 270 | 1.0 | 9.0 | 0.00 | 0.39 | 0.00 | 38 | 1015.6 |
| 20260507160509 | 58 | 275 | 3.0 | 11.0 | 0.00 | 0.40 | 0.00 | 38 | 1015.6 |
| 20260507160033 | 57 | 318 | 3.0 | 11.0 | 0.00 | 0.41 | 0.00 | 38 | 1015.6 |
| 20260507155011 | 57 | 306 | 4.0 | 9.0 | 0.00 | 0.42 | 0.00 | 37 | 1015.6 |
| 20260507154522 | 57 | 244 | 1.0 | 9.0 | 0.00 | 0.43 | 0.00 | 37 | 1015.7 |
| 20260507154010 | 57 | 88 | 0.0 | 2.0 | 0.00 | 0.44 | 0.00 | 40 | 1015.8 |
| 20260507153508 | 57 | 75 | 0.0 | 4.0 | 0.00 | 0.45 | 0.00 | 42 | 1015.9 |
| 20260507153006 | 57 | 62 | 0.0 | 4.0 | 0.00 | 0.45 | 0.00 | 44 | 1015.9 |
| 20260507152504 | 57 | 48 | 0.0 | 7.0 | 0.00 | 0.46 | 0.00 | 41 | 1015.9 |
| 20260507152009 | 57 | 47 | 0.0 | 9.0 | 0.00 | 0.47 | 0.00 | 43 | 1015.8 |
| 20260507151512 | 57 | 354 | 3.0 | 9.0 | 0.00 | 0.48 | 0.00 | 38 | 1015.8 |
| 20260507151008 | 56 | 305 | 0.0 | 5.0 | 0.00 | 0.48 | 0.00 | 39 | 1015.7 |
| 20260507150508 | 56 | 285 | 1.0 | 10.0 | 0.00 | 0.49 | 0.00 | 39 | 1015.7 |
| 20260507150018 | 56 | 270 | 2.0 | 10.0 | 0.00 | 0.50 | 0.00 | 39 | 1015.6 |
| 20260507145507 | 56 | 316 | 2.0 | 8.0 | 0.00 | 0.50 | 0.00 | 41 | 1015.5 |
| 20260507145006 | 55 | 281 | 3.0 | 6.0 | 0.00 | 0.50 | 0.00 | 41 | 1015.5 |
| 20260507144522 | 54 | 270 | 1.0 | 5.0 | 0.00 | 0.51 | 0.00 | 41 | 1015.6 |
| 20260507144007 | 54 | 270 | 1.0 | 5.0 | 0.00 | 0.51 | 0.00 | 42 | 1015.7 |
| 20260507143508 | 54 | 270 | 0.0 | 2.0 | 0.00 | 0.51 | 0.00 | 43 | 1015.6 |
| 20260507143026 | 53 | 270 | 0.0 | 0.0 | 0.00 | 0.51 | 0.00 | 45 | 1015.7 |